Change the Weather History Date:

Thursday, May 23, 2013

  Actual Average Record
Temperature  
Mean Temperature 42 °F 50 °F  
Max Temperature 56 °F 66 °F 81 °F (2000)
Min Temperature 27 °F 34 °F 19 °F (1960)
Degree Days  
Heating Degree Days 23 15  
Month to date heating degree days 353 415  
Since 1 July heating degree days 6737 7305  
Cooling Degree Days 0 0  
Month to date cooling degree days 0 0  
Year to date cooling degree days 0 0  
Moisture  
Dew Point 18 °F    
Average Humidity 45    
Maximum Humidity 70    
Minimum Humidity 19    
Precipitation  
Precipitation 0.00 in - 0.48 in (1959)
Month to date precipitation 1.64  
Year to date precipitation 4.58  
Sea Level Pressure  
Sea Level Pressure 29.89 in    
Wind  
Wind Speed 4 mph (South)    
Max Wind Speed 20 mph    
Max Gust Speed 28 mph    
Visibility 10 miles    
Events      
T = Trace of Precipitation, MM = Missing Value Source: NWS Daily Summary

Daily Weather History Graph

Daily Weather History Graph

Search for Another Location

Airport or City:

Trip Planner

Search our weather history database for the weather conditions in past years. The results will help you decide how hot, cold, wet, or windy it might be!

Date:

Astronomy

May. 23, 2013 Rise Set
Actual Time 5:41 AM PDT 8:12 PM PDT
Civil Twilight 5:10 AM PDT 8:43 PM PDT
Nautical Twilight 4:32 AM PDT 9:22 PM PDT
Astronomical Twilight 3:49 AM PDT 10:04 PM PDT
Moon 6:52 PM PDT (5/23) 4:28 AM PDT (5/23)
Length of Visible Light 15h 33m
Length of Day
14h 31m
Waxing Gibbous, 97% of the Moon is Illuminated
May 23
Waxing Gibbous
May 24
Full
May 31
Last Quarter
Jun 8
New
Jun 16
First Quarter

Hourly Weather History & Observations

Time (PDT) Temp. Windchill Dew Point Humidity Pressure Visibility Wind Dir Wind Speed Gust Speed Precip Events Conditions
12:53 AM 30.0 °F - 19.0 °F 64% 29.82 in 10.0 mi Calm Calm - N/A   Clear
1:53 AM 28.9 °F 25.2 °F 19.9 °F 69% 29.81 in 10.0 mi South 3.5 mph - N/A   Clear
2:53 AM 28.0 °F 22.8 °F 19.0 °F 69% 29.81 in 10.0 mi South 4.6 mph - N/A   Clear
3:53 AM 27.0 °F 23.0 °F 18.0 °F 69% 29.81 in 10.0 mi South 3.5 mph - N/A   Clear
4:53 AM 27.0 °F 21.6 °F 18.0 °F 69% 29.80 in 10.0 mi SSW 4.6 mph - N/A   Clear
5:53 AM 27.0 °F - 17.1 °F 66% 29.83 in 10.0 mi Calm Calm - N/A   Clear
6:53 AM 30.9 °F - 19.0 °F 61% 29.82 in 10.0 mi Calm Calm - N/A   Clear
7:53 AM 39.9 °F 33.9 °F 15.1 °F 36% 29.83 in 10.0 mi South 9.2 mph 17.3 mph N/A   Clear
8:53 AM 42.1 °F 35.7 °F 14.0 °F 32% 29.85 in 10.0 mi South 11.5 mph - N/A   Overcast
9:53 AM 45.0 °F 40.1 °F 12.0 °F 26% 29.84 in 10.0 mi South 9.2 mph 20.7 mph N/A   Clear
10:53 AM 46.9 °F - 10.0 °F 22% 29.86 in 10.0 mi Variable 6.9 mph 17.3 mph N/A   Clear
11:53 AM 48.9 °F - 8.1 °F 19% 29.88 in 10.0 mi Variable 6.9 mph 24.2 mph N/A   Clear
12:53 PM 52.0 °F - 10.0 °F 19% 29.88 in 10.0 mi SSW 12.7 mph 26.5 mph N/A   Clear
1:53 PM 52.0 °F - 16.0 °F 24% 29.90 in 10.0 mi South 13.8 mph 18.4 mph N/A   Clear
2:53 PM 53.1 °F - 18.0 °F 25% 29.91 in 10.0 mi Variable 4.6 mph - N/A   Clear
3:53 PM 53.1 °F - 19.9 °F 27% 29.94 in 10.0 mi SSW 10.4 mph 17.3 mph N/A   Clear
4:53 PM 52.0 °F - 18.0 °F 26% 29.95 in 10.0 mi SSW 5.8 mph 16.1 mph N/A   Clear
5:53 PM 53.1 °F - 19.9 °F 27% 29.96 in 10.0 mi Calm Calm - N/A   Clear
6:53 PM 50.0 °F - 23.0 °F 35% 29.95 in 10.0 mi Calm Calm - N/A   Clear
7:53 PM 46.0 °F 44.8 °F 25.0 °F 44% 29.96 in 10.0 mi NNE 3.5 mph - N/A   Clear
8:53 PM 42.1 °F - 26.1 °F 53% 29.98 in 10.0 mi Calm Calm - N/A   Clear
9:53 PM 39.9 °F - 26.1 °F 58% 30.00 in 10.0 mi Calm Calm - N/A   Clear
10:53 PM 36.0 °F - 26.1 °F 67% 30.01 in 10.0 mi Calm Calm - N/A   Clear
11:53 PM 34.0 °F - 25.0 °F 70% 30.00 in 10.0 mi Calm Calm - N/A   Clear